Weather Service Report


765 
ASUS46 KLOX 311312
RWRCA 

SOUTHERN CALIFORNIA WEATHER ROUNDUP
NATIONAL WEATHER SERVICE OXNARD CALIFORNIA
600 AM PDT THU JUL 31 2014

NOTE: "FAIR" INDICATES FEW OR NO CLOUDS BELOW 12,000 FEET WITH NO 
SIGNIFICANT WEATHER AND/OR OBSTRUCTIONS TO VISIBILITY.

  -  STATIONS PRECEEDED BY AN ASTERISK (*) ARE NOT NWS OR FAA 
     STATIONS AND ARE NOT SUBJECT TO NWS AND FAA QUALITY CONTROL.

CAZ041-042-087-311400-
LA AND ORANGE COUNTY COASTAL AREAS

  
CITY           SKY/WX    TMP DP  RH WIND       PRES   REMARKS
L.A. DOWNTOWN  CLEAR     68  63  84 CALM      29.91S                  
L.A. AIRPORT   PTCLDY    67  63  87 CALM      29.92R                  
LONG BEACH     CLEAR     69  65  86 CALM      29.92R                  

CITY           SKY/WX    TMP DP  RH WIND       PRES   REMARKS
AVALON           N/A     63 N/A N/A S2          N/A                   
FULLERTON      CLEAR     69  63  81 SE5       29.91R                  
*GETTY CENTER    N/A     68  57  68 NE3         N/A                   
HAWTHORNE      CLEAR     68  64  87 CALM      29.92R                  
*LOS ALAMITOS  FAIR      67  64  92 SE3       29.92R                  
*REDONDO BEACH   N/A     65  62  89 CALM      29.91S                  
SANTA ANA      PTCLDY    70  64  81 SW3       29.92S                  
STA MONICA APT CLEAR     67  62  84 CALM      29.92R                  
*UCLA            N/A     66  59  77 CALM      29.90R                  

$$

CAZ547-548-048-311400-
LA COUNTY VALLEYS AND INLAND EMPIRE

  
CITY           SKY/WX    TMP DP  RH WIND       PRES   REMARKS
BURBANK        CLEAR     70  60  70 CALM      29.93R                  
VAN NUYS       CLEAR     72  57  59 E3        29.93R                  

CITY           SKY/WX    TMP DP  RH WIND       PRES   REMARKS
CORONA AIRPORT SUNNY     67  62  84 CALM      29.93S                  
*CHATSWORTH      N/A     71  60  68 CALM      29.87S                  
CHINO          CLEAR     65  62  90 CALM      29.94R                  
MARCH AFB      CLEAR     68  55  62 NW2       29.96S                  
*NORTHRIDGE      N/A     70  55  60 E1          N/A                   
ONTARIO        PTCLDY    72  58  61 CALM      29.93S                  
*PASADENA        N/A     70  63  78 CALM        N/A                   
RIVERSIDE      CLEAR     71  60  68 CALM      29.94R                  
SAN BERNARDINO NOT AVBL                                               
*WHITEMAN AP   NOT AVBL                                               
*WOODLAND HILL   N/A     68  59  73 SE2         N/A                   

$$

CAZ054-055-311400-
LA AND SAN BERNARDINO COUNTY MOUNTAINS

  
CITY           SKY/WX    TMP DP  RH WIND       PRES   REMARKS
*BIG BEAR AIRP MOSUNNY   50  43  76 CALM      30.34R                  
*BIG PINES       N/A     63  41  45 CALM        N/A                   
MT WILSON NWS    N/A     72  41  33 MISG        N/A                   
SANDBERG       CLEAR     75  46  35 N12       30.18R                  

$$

CAZ028-029-059-060-099-311400-
ANTELOPE VALLEY AND SURROUNDING AREAS

  
CITY           SKY/WX    TMP DP  RH WIND       PRES   REMARKS
LANCASTER      CLEAR     69  46  43 CALM      30.02R                  
PALMDALE       CLEAR     73  47  39 S6        30.03R                  

CITY           SKY/WX    TMP DP  RH WIND       PRES   REMARKS
29 PALMS       CLEAR     83  49  30 W10       30.03R                  
BARSTOW/DAGGET PTCLDY    80  49  33 W9        29.97R                  
BISHOP         PTCLDY    59  50  72 NW5       30.17S                  
CHINA LAKE     PTCLDY    77  52  41 W9        30.01R                  
EDWARDS AFB    PTCLDY    72  47  40 SW5       30.00R                  
MOJAVE         FAIR      79  46  31 NW9       30.04S                  
NEEDLES        PTCLDY    92  52  25 NW6       29.83R                  
VICTORVILLE    CLEAR     73  46  38 SE6       30.06R                  

$$

CAZ039-040-311400-
VENTURA AND SANTA BARBARA COUNTY COAST

  
CITY           SKY/WX    TMP DP  RH WIND       PRES   REMARKS
CAMARILLO      CLOUDY    65  60  84 CALM      29.92R                  
NWS OXNARD       N/A     63  60  89 CALM      29.92S                  
OXNARD AIRPORT MOCLDY    63  61  94 W5        29.92R                  
*POINT MUGU    CLOUDY    64  60  87 CALM      29.93R                  
SBA APT/GOLETA CLEAR     63  59  87 CALM      29.90S                  
*SANTA BARBARA   N/A     66  60  82 CALM      29.98S                  
*VENTURA         N/A     64  61  91 CALM      29.96S                  

$$

CAZ044-045-311400-
VENTURA COUNTY VALLEYS

  
CITY           SKY/WX    TMP DP  RH WIND       PRES   REMARKS
*SIMI VALLEY     N/A     65  58  76 CALM      29.86S                  
*OJAI            N/A     62  56  83 CALM      29.86R                  
*FILLMORE        N/A     62  58  84 CALM      29.82S                  

$$

CAZ053-311400-
VENTURA COUNTY MOUNTAINS

  
CITY           SKY/WX    TMP DP  RH WIND       PRES   REMARKS
*LOCKWOOD VLY    N/A     55  41  58 MISG        N/A                   
*ROSE VALLEY     N/A     57  48  72 MISG        N/A                   

$$

CAZ034-035-036-311400-
CENTRAL COAST AND SANTA YNEZ VALLEY

  
CITY           SKY/WX    TMP DP  RH WIND       PRES   REMARKS
SAN LUIS OBISP CLOUDY    59  58  96 NW7       29.97R                  
SANTA MARIA    FOG       61  58  90 NW3       29.98R VSB 1            

CITY           SKY/WX    TMP DP  RH WIND       PRES   REMARKS
*CAL POLY SLO    N/A     59  59 100 SW2         N/A                   
*LOMPOC          N/A     61  55  82 MISG      29.98S                  
*PISMO BEACH     N/A     60  59  95 CALM      29.98S                  

$$

CAZ037-038-051-311400-
SAN LUIS OBISPO COUNTY INTERIOR AND CUYAMA VALLEY

  
CITY           SKY/WX    TMP DP  RH WIND       PRES   REMARKS
*CUYAMA          N/A     68  49  51 E2        29.87S                  
PASO ROBLES    CLEAR     64  54  69 NW7       29.98R                  

$$

CAZ032-033-061-311400-
SOUTHERN DESERTS

  
CITY           SKY/WX    TMP DP  RH WIND       PRES   REMARKS
BLYTHE           N/A    N/A N/A N/A MISG      29.79R                  
IMPERIAL         N/A     87  53  31 SE8       29.77R                  
PALM SPRINGS   CLEAR     93  53  25 W7        29.82S HX  90           
THERMAL        CLEAR     92  55  28 N8        29.75R HX  90           

$$

ELSEWHERE ACROSS THE WESTERN UNITED STATES AND MEXICO

  
CITY           SKY/WX    TMP DP  RH WIND       PRES   REMARKS
DENVER, CO     LGT RAIN  59  56  89 E3        30.30R                  
GRAND CANYON,  CLEAR     52  47  83 NE3       30.31R                  
HONOLULU, HI   PTCLDY    79  66  65 NE9       29.98F                  
KAHULUI, MAUI  CLEAR     75  68  78 NE8       29.99F                  
LAKE TAHOE, CA CLEAR     48  42  80 S3        30.32S                  
LAS VEGAS, NV  MOCLDY    84  52  33 S9        29.93R                  
MAMMOTH LAKES, FAIR      48  46  93 CALM      30.38S                  
MEXICO CITY, M MOCLDY    57  50  77 NE6       30.38S                  
PHOENIX, AZ    PTCLDY    90  57  32 E6        29.86R                  
PORTLAND, OR   PTCLDY    62  52  69 NW6       30.05F                  
RENO, NV       PTCLDY    65  49  56 SW5       30.21R                  
SALT LAKE CITY PTCLDY    63  56  78 SW3       30.17S                  
SAN DIEGO, CA  MOCLDY    71  65  81 CALM      29.94R                  
SAN FRANCISCO, CLOUDY    59  57  93 NW6       29.97S                  
SAN JOSE, CA   CLOUDY    62  59  90 CALM      29.96S                  
SEATTLE, WA    PTCLDY    65  46  50 NE6       30.12S                  
TIJUANA, MEX   FOG       68  64  88 CALM      29.95S VSB 1            

$$
  
STATION/POSITION TIME  TEMP    WIND        PRES    VSBY  WAVE
                       AIR SEA DIR/SP/G                  HT/PER
                 (UTC) (F)     (DEG/KT/KT) (MB)    (MI)  (FT/S)
POINT ARGUELLO B NOT AVBL
WEST SANTA BARBA 1300   60 61  310/ 21/ 27 1012.7F         5/ 5
POINT CONCEPTION NOT AVBL
EAST SANTA BARBA 1300   64 66  280/ 10/ 12 1012.8R
SANTA MONICA BAY 1300   65 67  350/ 10/ 14 1012.8R         4/ 6

Return to Home page


Western Regional Climate Center, wrcc@dri.edu